Cadjehoun Airport

Jump to: basic info | weather | frequencies | runways | comments

Related pages: nearby airports | nearby navaids | notams | map

Basic information (top)

Codes: COO DBBB
Location: lon 6.357230, lat 2.384350, elev 19 ft / 6 m msl
Status: medium_airport
Scheduled airline service: yes
Links: Wikipedia Mobile

Weather (top)

Current conditions (rec'd 2015/03/30 04:00Z):

DBBB 300400Z 22010KT 8000 SCT012 28/25 Q1008 NOSIG

Airport forecast (rec'd 2015/03/29 00:21Z):

TAF TAF DBBB 292300Z 3000/3106 22010KT 9999 SCT013 
      TEMPO 3005/3008 34002KT 
      TEMPO 3013/3021 TS BKN010 FEW023CB PROB30 3014/3020 08022G45KT 3000 TSRA

Frequencies (top)

Verify before use: may be inaccurate or out of date.

A/G: 658.6 MHz (A/G VOICE RDO)
APP: 125.9 MHz (APP)
TWR: 125.9 MHz (TWR)

Runways (top)

06/24: 7,874 x 148 ft (2,400 x 45 m) — paved — lighted — threshold 06 displaced 125 ft (38 m)

Latest comments (top)

No comments yet for Cadjehoun Airport

More... (top)

See also NOTAMs and nearby airports and navaids, or visit the Cadjehoun Airport page at the main OurAirports website..